Location: Newark
(17.9939°S, 31.0481°E)
Time: 18:20:00
(UTC+00:00)

Courier 1B - Pass Details

Date: 16 November 2019
Orbit: 963 x 1209 km, 28.3° (Epoch: 07 December)

Event Time Altitude Azimuth Distance (km) Brightness Sun altitude
Rises 16:39:04 0° 275° (W) 3,948 11.9 -7.3°
Reaches altitude 10° 16:41:53 10° 270° (W) 3,025 11.3 -8.0°
Maximum altitude 16:49:12 51° 195° (SSW) 1,448 8.7 -9.6°
Drops below altitude 10° 16:56:49 10° 120° (ESE) 3,148 9.8 -11.2°
Sets 16:59:49 0° 114° (ESE) 4,119 10.4 -11.9°
